Weather in Kitakyushu

Japan     33°51′36″N   130°51′15″E
temp.,
°C
wind,
m/s
gust,
m/s
humid.,
%
clouds,
%
prec.,
mm/h
press.,
hPa
HPBL,
m
25 october, mon
mon2500:00+14sse2272100 0.0 102360
03:00+13s2274100 0.0 102365
06:00+13sw1173100 0.0 102216
09:00+15nnw1268100 0.0 1020177
12:00+18ese1259100 0.1 1021980
15:00+19nne245552 0.1 10191409
18:00+16ne24700 0.0 1019168
21:00+14ene11760 0.0 101929
26 october, tue
tue2600:00+14e01761 0.0 101912
03:00+13nnw01760 0.0 101919
06:00+13ne01750 0.0 101920
09:00+18nne24551 0.0 1020942
12:00+20n344594 0.0 10191396
15:00+19n34465 0.0 10181314
18:00+16nne126088 0.0 101864
21:00+15ene116539 0.0 101819
27 october, wed
wed2700:00+14s1169100 0.0 101825
03:00+14ssw1169100 0.0 101830
06:00+14s1172100 0.0 101821
09:00+17ssw125771 0.0 1019347
12:00+21nw343611 0.0 10171668
15:00+20nw34390 0.0 10161586
18:00+17nnw23520 0.0 101785
21:00+16nne01570 0.0 101811
28 october, thu
thu2800:00+14s11620 0.0 101915
03:00+13ssw11650 0.0 101817
06:00+13s11650 0.0 101916
09:00+17ssw11510 0.0 1020279
12:00+21n45410 0.0 10191492
15:00+20n46440 0.0 10191161
18:00+17nne37570 0.0 1020773
21:00+16ne39610 0.0 1022797
29 october, fri
fri2900:00+15ne410640 0.0 1022839
03:00+13ne410590 0.0 1022726
06:00+13ne310650 0.0 1023777
09:00+15ne59550 0.0 10241030
12:00+18ne57440 0.0 10231365
15:00+19nne57450 0.0 10221416
18:00+15nne36581 0.0 1022533
21:00+14ne126330 0.0 102367